Torna al catalogo

CZ-4B R/B

AttivoPO
NORAD 43656·ROCKET BODY·🇨🇳 China

Lanciato Oct 24, 2018 da Taiyuan Satellite Launch Center

Loading…

Prossimi Passaggi (prossime 24 ore)

TLE

AggiornatoSource: Space-Track

Epoca: Sep 14, 2026, 05:01 UTC

1 43656U 18081B   26257.20948058  .00000155  00000-0  63123-4 0  9990
2 43656  99.3643 182.2070 0204950  10.5679 349.9712 14.31891093412043

Traccia CZ-4B R/B in tempo reale con AllMySat

Download on the App Store